Location: Lane
(33.5226°N, 79.8788°W)
Time: 17:39:41
(UTC+00:00)

Transit 2A - Pass Details

Date: 27 September 2022
Orbit: 598 x 959 km, 66.7° (Epoch: 06 December)

Event Time Altitude Azimuth Distance (km) Brightness Sun altitude
Rises 05:32:43 0° 217° (SW) 3,003 - -57.7°
Reaches altitude 10° 05:35:09 10° 223° (SW) 2,046 - -57.6°
Maximum altitude 05:39:35 49° 298° (WNW) 797 - -57.4°
Drops below altitude 10° 05:43:48 10° 14° (NNE) 1,949 - -57.2°
Sets 05:46:04 0° 20° (NNE) 2,845 - -57.1°
